Regional Weather Roundup
Issued by NWS

Home | Current Version | Previous Version | Text Only | Print | Product List | Glossary On
Versions: 1 2 3 4 5 6 7 8 9 10 11 12 13 14 15 16 17 18 19 20 21 22 23 24 25 26 27 28
000
ASUS42 KKEY 231410
RWRKEY

FLORIDA REGIONAL WEATHER ROUNDUP FOR THE FLORIDA KEYS
NATIONAL WEATHER SERVICE KEY WEST FLORIDA
900 AM EST MON JAN 23 2017

...SOUTH FLORIDA AND THE KEYS...

CITY           SKY/WX    TMP DP  RH WIND       PRES   REMARKS
FORT MYERS     PTSUNNY   69  62  78 W15G22    29.62R
SW REGIONAL AP CLOUDY    67  60  78 W8        29.63R HAZE
NAPLES         CLOUDY    70  63  78 W17G30    29.64R
MIAMI          MOSUNNY   74  61  63 W14G24    29.64R
WEST KENDALL   SUNNY     73  61  65 W18       29.65R
HOMESTEAD      SUNNY     73  64  74 W18G29    29.65R
MARATHON       PTSUNNY   77  61  57 W23G37    29.71R
BOCA CHICA NAS MOSUNNY   74  59  59 W32G39    29.72R
KEY WEST INTL  NOT AVBL

...INTERNATIONAL WEATHER...

CITY           SKY/WX    TMP DP  RH WIND       PRES   REMARKS
NASSAU BAHAMAS TSTM      75  70  83 S26       29.66R
CANCUN MEXICO  PTSUNNY   68  61  77 W8        29.92R
COZUMEL MEXICO SUNNY     72  61  68 NW15      29.91R

ADJACENT COASTAL WATERS...

STATION/POSITION TIME  SKY/WX   TEMP    WIND        PRES    WAVE
                                AIR SEA DIR/SP/G            HT/PER
                 (UTC)          (F)     (DEG/KT/KT) (MB)    (FT/S)
PULASKI SHOAL LI 1300            74     280/ 28/ 34 1005.3R
SAND KEY         1250            74     290/ 35/ 41 1006.0R
LONG KEY         1300            74 74  280/ 28/ 35 1004.8R
MOLASSES REEF    1300            74     280/ 35       N/A
FOWEY ROCKS      1300            72 74  270/ 25/ 29 1004.0R

$$




USA.gov is the U.S. government's official web portal to all federal, state and local government web resources and services.